GW2454 Weather Reports


time (UTC)temp
C
wind
direction
speed
KPH
gust
KPH
rain 1hr
cm
rain 24hr
cm
rain mn
cm
humidity
%
barometer
mb
20260505170423 25 212 6.4 8.0 0.00 0.00 0.00 85 1006.6
20260505165918 26 178 6.4 9.7 0.00 0.00 0.00 83 1006.7
20260505165415 26 213 4.8 8.0 0.00 0.00 0.00 82 1006.7
20260505164910 26 266 4.8 9.7 0.00 0.00 0.00 82 1006.7
20260505164407 26 220 4.8 4.8 0.00 0.00 0.00 82 1006.7
20260505163905 26 196 3.2 3.2 0.00 0.00 0.00 83 1006.6
20260505163404 26 260 12.9 16.1 0.00 0.00 0.00 82 1006.8
20260505162902 26 216 9.7 12.9 0.00 0.00 0.00 82 1006.7
20260505162357 26 221 4.8 8.0 0.00 0.00 0.00 83 1006.7
20260505161855 25 203 4.8 4.8 0.00 0.00 0.00 83 1006.6
20260505161351 25 241 8.0 9.7 0.00 0.00 0.00 82 1006.4
20260505160849 25 196 4.8 4.8 0.00 0.00 0.00 83 1006.7
20260505160347 25 217 8.0 11.3 0.00 0.00 0.00 83 1006.5
20260505153325 25 213 6.4 8.0 0.00 0.00 0.00 84 1006.4
20260505152822 25 199 4.8 4.8 0.00 0.00 0.00 84 1006.4
20260505152319 25 210 4.8 8.0 0.00 0.00 0.00 84 1006.4
20260505151814 25 270 6.4 9.7 0.00 0.00 0.00 84 1006.5
20260505151311 25 223 4.8 4.8 0.00 0.00 0.00 84 1006.3
20260505150808 25 260 4.8 8.0 0.00 0.00 0.00 84 1006.3
20260505150305 25 232 3.2 3.2 0.00 0.00 0.00 84 1006.3
20260505140229 24 209 4.8 4.8 0.00 0.00 0.00 86 1005.9
20260505130153 23 223 4.8 4.8 0.00 0.00 0.00 88 1006.1
20260505124643 22 166 4.8 4.8 0.00 0.00 0.00 89 1005.6
20260505124139 22 158 3.2 3.2 0.00 0.00 0.00 89 1005.5
20260505123635 22 202 4.8 8.0 0.00 0.00 0.00 89 1005.6
20260505123132 22 224 3.2 3.2 0.00 0.00 0.00 89 1006.0
20260505122629 22 179 1.6 1.6 0.00 0.00 0.00 89 1006.0
20260505122126 22 190 1.6 1.6 0.00 0.00 0.00 89 1005.7
20260505121622 22 216 4.8 4.8 0.00 0.00 0.00 90 1006.1
20260505121119 22 204 3.2 3.2 0.00 0.00 0.00 90 1005.9
20260505120615 22 181 1.6 3.2 0.00 0.00 0.00 90 1005.8
20260505120112 22 194 1.6 1.6 0.00 0.00 0.00 90 1005.5
20260505115606 22 211 4.8 4.8 0.00 0.00 0.00 90 1005.5
20260505115104 22 203 9.7 11.3 0.00 0.00 0.00 90 1005.5
20260505114601 22 211 1.6 3.2 0.00 0.00 0.00 90 1005.3
20260505114057 22 204 4.8 4.8 0.00 0.00 0.00 90 1005.4
20260505113553 22 236 4.8 4.8 0.00 0.00 0.00 90 1005.8
20260505113050 22 216 3.2 4.8 0.00 0.00 0.00 91 1005.9
20260505112546 22 243 3.2 3.2 0.00 0.00 0.00 91 1005.5
20260505112044 21 237 3.2 3.2 0.00 0.00 0.00 91 1005.7
20260505111538 21 205 1.6 3.2 0.00 0.00 0.00 91 1005.6
20260505111035 21 220 1.6 1.6 0.00 0.00 0.00 91 1005.6
20260505110531 21 201 3.2 4.8 0.00 0.00 0.00 91 1005.4
20260505102003 22 152 1.6 3.2 0.00 0.00 0.00 90 1005.5
20260505101501 22 223 4.8 4.8 0.00 0.00 0.00 90 1005.5
20260505100958 22 237 3.2 3.2 0.00 0.00 0.00 89 1005.4
20260505100455 22 236 3.2 3.2 0.00 0.00 0.00 90 1005.5
20260505095951 22 166 4.8 4.8 0.00 0.00 0.00 89 1005.6
20260505095448 21 217 6.4 8.0 0.00 0.00 0.00 89 1005.6
20260505094944 21 232 3.2 3.2 0.00 0.00 0.00 90 1005.6
20260505094441 21 207 3.2 3.2 0.00 0.00 0.00 90 1005.7
20260505093937 21 209 1.6 3.2 0.00 0.00 0.00 90 1005.5
20260505093434 21 195 3.2 3.2 0.00 0.00 0.00 89 1005.8
20260505092931 21 185 1.6 1.6 0.00 0.00 0.00 89 1005.7
20260505092429 21 217 1.6 1.6 0.00 0.00 0.00 89 1005.8
20260505091926 21 225 1.6 1.6 0.00 0.00 0.00 89 1005.9
20260505091423 21 212 4.8 4.8 0.00 0.00 0.00 89 1005.7
20260505090921 21 216 3.2 3.2 0.00 0.00 0.00 89 1006.1
20260505090419 21 213 3.2 3.2 0.00 0.00 0.00 89 1006.1
20260505085916 21 225 1.6 1.6 0.00 0.00 0.00 89 1005.9
20260505085414 21 190 1.6 3.2 0.00 0.00 0.00 89 1006.0
20260505084912 21 221 3.2 3.2 0.00 0.00 0.00 89 1006.0
20260505084410 21 208 3.2 3.2 0.00 0.00 0.00 89 1005.6
20260505083908 21 185 1.6 3.2 0.00 0.00 0.00 88 1006.1
20260505083405 21 242 1.6 3.2 0.00 0.00 0.00 88 1005.8
20260505082901 21 204 1.6 1.6 0.00 0.00 0.00 88 1006.2
20260505082357 21 210 3.2 3.2 0.00 0.00 0.00 88 1006.4
20260505081854 21 207 3.2 3.2 0.00 0.00 0.00 87 1006.2
20260505081351 21 220 1.6 3.2 0.00 0.00 0.00 87 1006.1
20260505080848 21 231 3.2 3.2 0.00 0.00 0.00 87 1006.2
20260505080344 21 221 1.6 1.6 0.00 0.00 0.00 87 1006.3
20260505075839 21 207 1.6 3.2 0.00 0.00 0.00 87 1006.4
20260505075336 21 206 1.6 1.6 0.00 0.00 0.00 87 1006.3
20260505074833 21 200 3.2 3.2 0.00 0.00 0.00 87 1006.6
20260505074331 21 231 3.2 4.8 0.00 0.00 0.00 87 1006.4
20260505073828 21 183 1.6 1.6 0.00 0.00 0.00 86 1006.6
20260505073326 21 217 3.2 3.2 0.00 0.00 0.00 86 1006.4
20260505072822 21 197 3.2 3.2 0.00 0.00 0.00 86 1006.3
20260505072319 21 218 4.8 4.8 0.00 0.00 0.00 86 1006.6
20260505071815 21 172 3.2 3.2 0.00 0.00 0.00 86 1006.8
20260505071311 21 248 3.2 3.2 0.00 0.00 0.00 86 1006.6
20260505070810 21 216 4.8 4.8 0.00 0.00 0.00 86 1006.9
20260505070306 21 221 4.8 8.0 0.00 0.00 0.00 86 1006.8
20260505065801 21 219 3.2 4.8 0.00 0.00 0.00 85 1006.8
20260505065258 21 236 3.2 3.2 0.00 0.00 0.00 85 1007.0
20260505064755 21 228 3.2 3.2 0.00 0.00 0.00 85 1007.0
20260505064252 21 211 8.0 11.3 0.00 0.00 0.00 85 1007.1
20260505063749 21 233 3.2 3.2 0.00 0.00 0.00 85 1006.9
20260505063241 21 218 3.2 3.2 0.00 0.00 0.00 85 1007.2
20260505062737 21 228 4.8 4.8 0.00 0.00 0.00 85 1007.4
20260505062235 21 208 3.2 4.8 0.00 0.00 0.00 85 1007.2
20260505061731 21 186 4.8 8.0 0.00 0.00 0.00 85 1007.0
20260505061230 21 177 8.0 9.7 0.00 0.00 0.00 85 1007.4
20260505060726 21 200 4.8 4.8 0.00 0.00 0.00 84 1007.4
20260505060224 21 168 4.8 4.8 0.00 0.00 0.00 84 1007.3
20260505055718 21 216 4.8 4.8 0.00 0.00 0.00 84 1007.3
20260505055215 21 216 8.0 9.7 0.00 0.00 0.00 84 1007.2
20260505054713 21 160 6.4 9.7 0.00 0.00 0.00 84 1007.2
20260505054210 21 214 4.8 4.8 0.00 0.00 0.00 83 1007.2
20260505053709 22 172 3.2 3.2 0.00 0.00 0.00 83 1007.3
20260505053204 22 215 4.8 4.8 0.00 0.00 0.00 83 1007.5
20260505052701 22 194 6.4 8.0 0.00 0.00 0.00 83 1007.6
20260505052153 22 199 3.2 3.2 0.00 0.00 0.00 82 1007.8
20260505051650 22 219 4.8 4.8 0.00 0.00 0.00 82 1007.7
20260505051148 22 200 3.2 4.8 0.00 0.00 0.00 82 1007.7
20260505050645 22 212 3.2 3.2 0.00 0.00 0.00 82 1007.8
20260505050144 22 227 4.8 4.8 0.00 0.00 0.00 81 1007.7
20260505041613 22 186 8.0 9.7 0.00 0.00 0.00 79 1007.5
20260505041110 22 237 6.4 8.0 0.00 0.00 0.00 79 1007.7
20260505040608 22 223 4.8 4.8 0.00 0.00 0.00 79 1007.5
20260505040105 22 162 4.8 8.0 0.00 0.00 0.00 79 1008.2
20260505035601 22 195 4.8 4.8 0.00 0.00 0.00 79 1007.8
20260505035057 22 156 6.4 8.0 0.00 0.00 0.00 79 1007.9
20260505034554 22 225 4.8 4.8 0.00 0.00 0.00 79 1007.8
20260505034051 22 264 9.7 11.3 0.00 0.00 0.00 78 1007.8
20260505033548 22 164 3.2 3.2 0.00 0.00 0.00 78 1008.0
20260505033046 22 199 4.8 8.0 0.00 0.00 0.00 78 1008.2
20260505032544 22 210 6.4 8.0 0.00 0.00 0.00 78 1008.4
20260505032040 23 202 8.0 11.3 0.00 0.00 0.00 78 1008.2
20260505031537 23 185 6.4 9.7 0.00 0.00 0.00 78 1008.4
20260505031033 23 172 3.2 3.2 0.00 0.00 0.00 78 1008.2
20260505030531 23 188 4.8 8.0 0.00 0.00 0.00 77 1008.1
20260505030026 23 212 4.8 4.8 0.00 0.00 0.00 77 1008.0
20260505025522 23 195 9.7 12.9 0.00 0.00 0.00 77 1007.8
20260505025022 23 198 6.4 9.7 0.00 0.00 0.00 77 1007.7
20260505024518 23 211 8.0 9.7 0.00 0.00 0.00 77 1007.7
20260505024015 23 255 11.3 14.5 0.00 0.00 0.00 76 1007.6
20260505023512 23 217 8.0 9.7 0.00 0.00 0.00 76 1007.7
20260505023010 23 201 4.8 8.0 0.00 0.00 0.00 75 1007.7
20260505022507 23 220 9.7 12.9 0.00 0.00 0.00 75 1007.7
20260505022004 23 203 4.8 4.8 0.00 0.00 0.00 75 1007.6
20260505021501 23 196 4.8 4.8 0.00 0.00 0.00 75 1007.7
20260505020956 23 193 6.4 8.0 0.00 0.00 0.00 74 1007.7
20260505020452 23 215 6.4 8.0 0.00 0.00 0.00 74 1007.6
20260505015949 23 222 6.4 8.0 0.00 0.00 0.00 73 1007.6
20260505015446 24 206 6.4 8.0 0.00 0.00 0.00 73 1007.5
20260505014943 24 253 8.0 11.3 0.00 0.00 0.00 73 1007.3
20260505014440 24 221 9.7 11.3 0.00 0.00 0.00 73 1007.5
20260505013937 24 232 4.8 4.8 0.00 0.00 0.00 73 1007.5
20260505013434 24 231 11.3 14.5 0.00 0.00 0.00 73 1007.3
20260505012932 24 204 6.4 8.0 0.00 0.00 0.00 73 1007.4
20260505012430 24 212 4.8 8.0 0.00 0.00 0.00 72 1007.3
20260505011926 23 233 6.4 9.7 0.00 0.00 0.00 73 1007.1
20260505011422 23 219 4.8 4.8 0.00 0.00 0.00 73 1007.2
20260505010919 24 232 4.8 4.8 0.00 0.00 0.00 72 1007.2
20260505010415 24 202 4.8 4.8 0.00 0.00 0.00 72 1007.3
20260505005911 24 229 4.8 8.0 0.00 0.00 0.00 71 1007.2
20260505005408 24 198 4.8 4.8 0.00 0.00 0.00 71 1007.2
20260505004905 24 199 4.8 4.8 0.00 0.00 0.00 70 1007.0
20260505004401 25 200 8.0 9.7 0.00 0.00 0.00 70 1007.3
20260505003859 25 222 4.8 8.0 0.00 0.00 0.00 70 1007.1
20260505003356 25 221 6.4 8.0 0.00 0.00 0.00 69 1007.4
20260505002852 25 214 3.2 3.2 0.00 0.00 0.00 69 1007.1
20260505002349 25 213 4.8 4.8 0.00 0.00 0.00 68 1007.4
20260505001847 25 241 9.7 12.9 0.00 0.00 0.00 68 1007.3
20260505001344 25 229 4.8 4.8 0.00 0.00 0.00 68 1007.3
20260505000841 25 224 11.3 14.5 0.00 0.00 0.00 67 1007.2
20260505000339 25 235 8.0 12.9 0.00 0.00 0.00 67 1007.1
20260504235835 25 246 3.2 3.2 0.00 0.00 0.00 67 1007.2
20260504235333 25 182 3.2 3.2 0.00 0.00 0.00 67 1007.4
20260504234829 25 216 4.8 4.8 0.00 0.00 0.00 67 1007.4
20260504234327 26 186 9.7 14.5 0.00 0.00 0.00 66 1007.4
20260504233823 26 221 6.4 8.0 0.00 0.00 0.00 66 1007.4
20260504233319 26 225 4.8 8.0 0.00 0.00 0.00 66 1007.2
20260504232816 26 151 6.4 9.7 0.00 0.00 0.00 65 1007.3
20260504232313 26 218 8.0 9.7 0.00 0.00 0.00 65 1007.1
20260504231810 26 210 11.3 12.9 0.00 0.00 0.00 64 1007.4
20260504231306 26 228 4.8 4.8 0.00 0.00 0.00 64 1007.5
20260504230802 26 231 4.8 4.8 0.00 0.00 0.00 64 1007.8
20260504230300 26 234 11.3 14.5 0.00 0.00 0.00 63 1007.7
20260504225759 26 151 6.4 9.7 0.00 0.00 0.00 62 1007.7
20260504225255 26 220 6.4 9.7 0.00 0.00 0.00 63 1007.7
20260504224752 26 210 6.4 8.0 0.00 0.00 0.00 62 1007.7
20260504224249 26 203 6.4 9.7 0.00 0.00 0.00 61 1007.8
20260504223746 26 231 8.0 8.0 0.00 0.00 0.00 61 1007.8
20260504223241 26 201 8.0 11.3 0.00 0.00 0.00 61 1007.8
20260504222738 27 222 9.7 11.3 0.00 0.00 0.00 60 1008.0
20260504222235 27 156 8.0 9.7 0.00 0.00 0.00 60 1007.8
20260504221733 27 246 8.0 9.7 0.00 0.00 0.00 60 1007.9
20260504221229 27 217 4.8 9.7 0.00 0.00 0.00 59 1008.1
20260504220725 27 220 4.8 4.8 0.00 0.00 0.00 59 1008.1
20260504220218 27 235 9.7 11.3 0.00 0.00 0.00 58 1008.2
20260504215714 27 182 4.8 8.0 0.00 0.00 0.00 59 1007.8
20260504215212 27 239 6.4 8.0 0.00 0.00 0.00 59 1008.1
20260504214707 27 205 6.4 8.0 0.00 0.00 0.00 58 1008.2
20260504214204 27 225 9.7 11.3 0.00 0.00 0.00 57 1008.5
20260504213701 27 195 3.2 3.2 0.00 0.00 0.00 57 1008.4
20260504213157 27 228 6.4 8.0 0.00 0.00 0.00 57 1008.4
20260504212654 27 244 4.8 4.8 0.00 0.00 0.00 57 1008.6
20260504212150 27 207 4.8 4.8 0.00 0.00 0.00 57 1008.6
20260504211648 28 223 4.8 4.8 0.00 0.00 0.00 57 1008.6
20260504211144 28 228 4.8 4.8 0.00 0.00 0.00 55 1008.7
20260504210642 28 205 6.4 8.0 0.00 0.00 0.00 54 1009.0
20260504210138 28 226 3.2 4.8 0.00 0.00 0.00 55 1008.8
20260504205636 27 214 6.4 8.0 0.00 0.00 0.00 56 1009.0
20260504205133 28 213 6.4 9.7 0.00 0.00 0.00 57 1008.9
20260504204631 28 261 8.0 11.3 0.00 0.00 0.00 53 1009.2
20260504204130 28 233 8.0 8.0 0.00 0.00 0.00 53 1009.5
20260504203628 28 268 6.4 9.7 0.00 0.00 0.00 55 1009.2
20260504203125 28 217 8.0 9.7 0.00 0.00 0.00 54 1009.5
20260504202620 28 237 4.8 8.0 0.00 0.00 0.00 56 1009.5
20260504202117 28 213 6.4 11.3 0.00 0.00 0.00 55 1009.6
20260504201614 27 242 3.2 3.2 0.00 0.00 0.00 56 1009.8
20260504201112 27 90 1.6 1.6 0.00 0.00 0.00 55 1009.6
20260504200608 28 248 4.8 8.0 0.00 0.00 0.00 54 1009.9
20260504200105 28 232 4.8 8.0 0.00 0.00 0.00 55 1010.0
20260504195601 28 235 3.2 4.8 0.00 0.00 0.00 55 1010.1
20260504195057 27 239 8.0 12.9 0.00 0.00 0.00 55 1010.3
20260504194554 27 268 8.0 11.3 0.00 0.00 0.00 55 1010.2
20260504194049 27 356 3.2 4.8 0.00 0.00 0.00 55 1010.3
20260504193546 27 198 6.4 9.7 0.00 0.00 0.00 56 1010.4
20260504193045 27 245 8.0 9.7 0.00 0.00 0.00 56 1010.3
20260504192543 28 201 6.4 8.0 0.00 0.00 0.00 57 1010.4
20260504192041 27 226 6.4 8.0 0.00 0.00 0.00 56 1010.5
20260504191538 27 216 4.8 4.8 0.00 0.00 0.00 57 1010.5
20260504191034 27 260 8.0 9.7 0.00 0.00 0.00 57 1011.1
20260504190531 26 216 8.0 9.7 0.00 0.00 0.00 56 1010.8
20260504190027 27 227 4.8 8.0 0.00 0.00 0.00 55 1010.8
20260504185524 27 274 8.0 9.7 0.00 0.00 0.00 54 1011.0
20260504185020 27 228 4.8 4.8 0.00 0.00 0.00 56 1010.8
20260504184516 27 179 6.4 8.0 0.00 0.00 0.00 59 1011.1
20260504184012 27 236 8.0 9.7 0.00 0.00 0.00 56 1011.0
20260504183509 26 186 1.6 3.2 0.00 0.00 0.00 56 1011.1
20260504183007 27 222 6.4 8.0 0.00 0.00 0.00 55 1011.4
20260504182503 27 214 8.0 11.3 0.00 0.00 0.00 56 1011.3
20260504182001 26 239 6.4 8.0 0.00 0.00 0.00 56 1011.3
20260504181458 26 246 11.3 12.9 0.00 0.00 0.00 58 1011.5
20260504180956 26 241 6.4 11.3 0.00 0.00 0.00 59 1011.3
20260504180455 26 220 4.8 8.0 0.00 0.00 0.00 59 1011.6
20260504175953 26 211 6.4 8.0 0.00 0.00 0.00 57 1011.5
20260504175450 26 242 6.4 9.7 0.00 0.00 0.00 57 1011.5
20260504174947 26 227 3.2 3.2 0.00 0.00 0.00 58 1011.5
20260504174445 26 234 6.4 9.7 0.00 0.00 0.00 57 1011.7
20260504173942 26 235 8.0 14.5 0.00 0.00 0.00 58 1011.8
20260504173438 25 222 4.8 4.8 0.00 0.00 0.00 58 1012.0
20260504172936 26 251 6.4 8.0 0.00 0.00 0.00 59 1011.9
20260504172431 26 254 4.8 4.8 0.00 0.00 0.00 59 1012.0
20260504171928 25 173 3.2 3.2 0.00 0.00 0.00 58 1011.9
20260504171426 26 223 8.0 9.7 0.00 0.00 0.00 58 1012.2
20260504170923 25 253 8.0 12.9 0.00 0.00 0.00 59 1012.1